| time (UTC) | temp C | wind direction | speed KPH | gust KPH | rain 1hr cm | rain 24hr cm | rain mn cm | humidity % | barometer mb |
| 20260505035519 | 10 | 359 | 0.0 | 8.0 | 0.00 | 0.00 | 0.00 | 48 | 1013.6 |
| 20260505035016 | 10 | 359 | 0.0 | 4.8 | 0.00 | 0.00 | 0.00 | 49 | 1013.7 |
| 20260505034516 | 10 | 359 | 0.0 | 4.8 | 0.00 | 0.00 | 0.00 | 48 | 1013.7 |
| 20260505034015 | 10 | 359 | 1.6 | 4.8 | 0.00 | 0.00 | 0.00 | 48 | 1013.6 |
| 20260505033613 | 10 | 359 | 1.6 | 8.0 | 0.00 | 0.00 | 0.00 | 48 | 1013.5 |
| 20260505033011 | 10 | 359 | 0.0 | 4.8 | 0.00 | 0.00 | 0.00 | 47 | 1013.3 |
| 20260505032510 | 10 | 359 | 0.0 | 8.0 | 0.00 | 0.00 | 0.00 | 47 | 1013.3 |
| 20260505032008 | 10 | 359 | 0.0 | 8.0 | 0.00 | 0.00 | 0.00 | 48 | 1013.2 |
| 20260505031508 | 10 | 359 | 3.2 | 9.7 | 0.00 | 0.00 | 0.00 | 47 | 1013.2 |
| 20260505031008 | 10 | 359 | 0.0 | 9.7 | 0.00 | 0.00 | 0.00 | 47 | 1012.9 |
| 20260505030507 | 11 | 359 | 1.6 | 14.5 | 0.00 | 0.00 | 0.00 | 47 | 1012.9 |
| 20260505030007 | 11 | 359 | 3.2 | 14.5 | 0.00 | 0.00 | 0.00 | 47 | 1012.9 |
| 20260505025511 | 11 | 359 | 0.0 | 6.4 | 0.00 | 0.00 | 0.00 | 47 | 1012.9 |
| 20260505025008 | 11 | 359 | 3.2 | 9.7 | 0.00 | 0.00 | 0.00 | 46 | 1012.9 |
| 20260505024510 | 11 | 359 | 1.6 | 12.9 | 0.00 | 0.00 | 0.00 | 46 | 1012.9 |
| 20260505024006 | 12 | 359 | 4.8 | 12.9 | 0.00 | 0.00 | 0.00 | 45 | 1012.8 |
| 20260505023505 | 12 | 359 | 3.2 | 14.5 | 0.00 | 0.00 | 0.00 | 45 | 1012.8 |
| 20260505023005 | 12 | 359 | 3.2 | 14.5 | 0.00 | 0.00 | 0.00 | 45 | 1012.6 |
| 20260505022504 | 12 | 359 | 1.6 | 12.9 | 0.00 | 0.00 | 0.00 | 46 | 1012.6 |
| 20260505022004 | 13 | 359 | 1.6 | 8.0 | 0.00 | 0.00 | 0.00 | 46 | 1012.7 |
| 20260505021505 | 13 | 359 | 3.2 | 8.0 | 0.00 | 0.00 | 0.00 | 46 | 1012.6 |
| 20260505021003 | 13 | 359 | 4.8 | 12.9 | 0.00 | 0.00 | 0.00 | 44 | 1012.6 |
| 20260505020503 | 13 | 359 | 6.4 | 16.1 | 0.00 | 0.00 | 0.00 | 43 | 1012.5 |
| 20260505020007 | 13 | 359 | 4.8 | 16.1 | 0.00 | 0.00 | 0.00 | 43 | 1012.6 |
| 20260505015503 | 14 | 359 | 1.6 | 12.9 | 0.00 | 0.00 | 0.00 | 43 | 1012.5 |
| 20260505015003 | 14 | 359 | 1.6 | 8.0 | 0.00 | 0.00 | 0.00 | 43 | 1012.5 |
| 20260505014502 | 14 | 359 | 1.6 | 6.4 | 0.00 | 0.00 | 0.00 | 43 | 1012.4 |
| 20260505014004 | 14 | 359 | 3.2 | 12.9 | 0.00 | 0.00 | 0.00 | 43 | 1012.3 |
| 20260505013502 | 14 | 359 | 4.8 | 12.9 | 0.00 | 0.00 | 0.00 | 42 | 1012.3 |
| 20260505013001 | 15 | 359 | 4.8 | 8.0 | 0.00 | 0.00 | 0.00 | 42 | 1012.2 |
| 20260505012501 | 15 | 359 | 1.6 | 16.1 | 0.00 | 0.00 | 0.00 | 42 | 1012.2 |
| 20260505012004 | 15 | 359 | 3.2 | 16.1 | 0.00 | 0.00 | 0.00 | 43 | 1012.1 |
| 20260505011501 | 15 | 359 | 6.4 | 14.5 | 0.00 | 0.00 | 0.00 | 42 | 1012.1 |
| 20260505011002 | 15 | 359 | 3.2 | 14.5 | 0.00 | 0.00 | 0.00 | 43 | 1012.1 |
| 20260505010500 | 15 | 359 | 6.4 | 14.5 | 0.00 | 0.00 | 0.00 | 42 | 1012.1 |
| 20260505010001 | 15 | 359 | 4.8 | 14.5 | 0.00 | 0.00 | 0.00 | 42 | 1012.1 |
| 20260505005501 | 15 | 359 | 4.8 | 12.9 | 0.00 | 0.00 | 0.00 | 42 | 1012.0 |
| 20260505005102 | 15 | 359 | 1.6 | 17.7 | 0.00 | 0.00 | 0.00 | 43 | 1012.0 |
| 20260505004601 | 15 | 359 | 4.8 | 17.7 | 0.00 | 0.00 | 0.00 | 42 | 1012.1 |
| 20260505004100 | 15 | 359 | 3.2 | 12.9 | 0.00 | 0.00 | 0.00 | 42 | 1012.0 |
| 20260505003600 | 15 | 359 | 0.0 | 14.5 | 0.00 | 0.00 | 0.00 | 43 | 1012.0 |
| 20260505003100 | 15 | 359 | 4.8 | 14.5 | 0.00 | 0.00 | 0.00 | 43 | 1012.0 |
| 20260505002559 | 15 | 359 | 4.8 | 9.7 | 0.00 | 0.00 | 0.00 | 42 | 1011.9 |
| 20260505002059 | 15 | 359 | 4.8 | 14.5 | 0.00 | 0.00 | 0.00 | 41 | 1011.9 |
| 20260505001605 | 15 | 359 | 3.2 | 14.5 | 0.00 | 0.00 | 0.00 | 42 | 1012.0 |
| 20260505001059 | 15 | 359 | 1.6 | 9.7 | 0.00 | 0.00 | 0.00 | 41 | 1011.8 |
| 20260505000601 | 15 | 359 | 4.8 | 9.7 | 0.00 | 0.00 | 0.00 | 41 | 1011.9 |
| 20260504235559 | 15 | 359 | 3.2 | 6.4 | 0.00 | 0.00 | 0.00 | 43 | 1011.9 |
| 20260504235059 | 15 | 359 | 1.6 | 9.7 | 0.00 | 0.00 | 0.00 | 42 | 1011.8 |
| 20260504234559 | 15 | 359 | 1.6 | 9.7 | 0.00 | 0.00 | 0.00 | 43 | 1011.8 |
| 20260504234058 | 15 | 359 | 1.6 | 9.7 | 0.00 | 0.00 | 0.00 | 43 | 1011.7 |
| 20260504233558 | 15 | 359 | 3.2 | 9.7 | 0.00 | 0.00 | 0.00 | 43 | 1011.7 |
| 20260504233108 | 15 | 359 | 1.6 | 6.4 | 0.00 | 0.00 | 0.00 | 43 | 1011.7 |
| 20260504232658 | 15 | 359 | 3.2 | 17.7 | 0.00 | 0.00 | 0.00 | 43 | 1011.7 |
| 20260504232058 | 15 | 359 | 6.4 | 17.7 | 0.00 | 0.00 | 0.00 | 41 | 1011.8 |
| 20260504231603 | 15 | 359 | 3.2 | 12.9 | 0.00 | 0.00 | 0.00 | 42 | 1011.8 |
| 20260504231057 | 15 | 359 | 3.2 | 12.9 | 0.00 | 0.00 | 0.00 | 41 | 1011.7 |
| 20260504230557 | 15 | 359 | 3.2 | 9.7 | 0.00 | 0.00 | 0.00 | 42 | 1011.8 |
| 20260504230059 | 15 | 359 | 4.8 | 9.7 | 0.00 | 0.00 | 0.00 | 40 | 1011.8 |
| 20260504225556 | 15 | 359 | 0.0 | 14.5 | 0.00 | 0.00 | 0.00 | 40 | 1011.7 |
| 20260504225056 | 16 | 359 | 6.4 | 12.9 | 0.00 | 0.00 | 0.00 | 39 | 1011.7 |
| 20260504224556 | 16 | 359 | 3.2 | 9.7 | 0.00 | 0.00 | 0.00 | 40 | 1011.7 |
| 20260504224056 | 16 | 359 | 1.6 | 9.7 | 0.00 | 0.00 | 0.00 | 39 | 1011.8 |
| 20260504223556 | 16 | 359 | 3.2 | 9.7 | 0.00 | 0.00 | 0.00 | 41 | 1011.6 |
| 20260504223056 | 16 | 359 | 4.8 | 9.7 | 0.00 | 0.00 | 0.00 | 38 | 1011.7 |
| 20260504222555 | 16 | 359 | 3.2 | 9.7 | 0.00 | 0.00 | 0.00 | 39 | 1011.6 |
| 20260504222058 | 16 | 359 | 4.8 | 9.7 | 0.00 | 0.00 | 0.00 | 39 | 1011.5 |
| 20260504221555 | 15 | 359 | 3.2 | 14.5 | 0.00 | 0.00 | 0.00 | 41 | 1011.6 |
| 20260504221056 | 15 | 359 | 1.6 | 14.5 | 0.00 | 0.00 | 0.00 | 38 | 1011.6 |
| 20260504220555 | 16 | 14 | 4.8 | 9.7 | 0.00 | 0.00 | 0.00 | 38 | 1011.5 |
| 20260504220055 | 16 | 30 | 3.2 | 12.9 | 0.00 | 0.00 | 0.00 | 38 | 1011.6 |
| 20260504215555 | 16 | 109 | 6.4 | 12.9 | 0.00 | 0.00 | 0.00 | 38 | 1011.5 |
| 20260504215054 | 16 | 77 | 0.0 | 14.5 | 0.00 | 0.00 | 0.00 | 38 | 1011.6 |
| 20260504214556 | 16 | 45 | 4.8 | 14.5 | 0.00 | 0.00 | 0.00 | 38 | 1011.7 |
| 20260504214054 | 16 | 95 | 4.8 | 14.5 | 0.00 | 0.00 | 0.00 | 39 | 1011.6 |
| 20260504213554 | 16 | 359 | 1.6 | 14.5 | 0.00 | 0.00 | 0.00 | 39 | 1011.5 |
| 20260504213054 | 16 | 116 | 4.8 | 14.5 | 0.00 | 0.00 | 0.00 | 38 | 1011.5 |
| 20260504212553 | 15 | 359 | 6.4 | 14.5 | 0.00 | 0.00 | 0.00 | 40 | 1011.6 |
| 20260504212053 | 15 | 93 | 0.0 | 11.3 | 0.00 | 0.00 | 0.00 | 41 | 1011.6 |
| 20260504211553 | 15 | 15 | 4.8 | 16.1 | 0.00 | 0.00 | 0.00 | 41 | 1011.6 |
| 20260504211057 | 16 | 359 | 4.8 | 16.1 | 0.00 | 0.00 | 0.00 | 38 | 1011.6 |
| 20260504210553 | 16 | 359 | 1.6 | 12.9 | 0.00 | 0.00 | 0.00 | 40 | 1011.6 |
| 20260504210106 | 16 | 37 | 1.6 | 12.9 | 0.00 | 0.00 | 0.00 | 39 | 1011.5 |
| 20260504205553 | 16 | 359 | 3.2 | 12.9 | 0.00 | 0.00 | 0.00 | 39 | 1011.5 |
| 20260504205052 | 16 | 359 | 6.4 | 12.9 | 0.00 | 0.00 | 0.00 | 38 | 1011.6 |
| 20260504204559 | 16 | 39 | 3.2 | 14.5 | 0.00 | 0.00 | 0.00 | 39 | 1011.7 |
| 20260504204053 | 16 | 359 | 4.8 | 14.5 | 0.00 | 0.00 | 0.00 | 41 | 1011.6 |
| 20260504203553 | 16 | 359 | 1.6 | 12.9 | 0.00 | 0.00 | 0.00 | 42 | 1011.7 |
| 20260504203104 | 16 | 359 | 1.6 | 14.5 | 0.00 | 0.00 | 0.00 | 40 | 1011.6 |
| 20260504202552 | 16 | 73 | 6.4 | 14.5 | 0.00 | 0.00 | 0.00 | 38 | 1011.7 |
| 20260504202051 | 16 | 87 | 1.6 | 8.0 | 0.00 | 0.00 | 0.00 | 40 | 1011.6 |
| 20260504201552 | 16 | 359 | 1.6 | 9.7 | 0.00 | 0.00 | 0.00 | 40 | 1011.6 |
| 20260504201055 | 16 | 359 | 1.6 | 9.7 | 0.00 | 0.00 | 0.00 | 40 | 1011.6 |
| 20260504200551 | 15 | 359 | 3.2 | 12.9 | 0.00 | 0.00 | 0.00 | 43 | 1011.6 |
| 20260504200051 | 15 | 359 | 6.4 | 12.9 | 0.00 | 0.00 | 0.00 | 42 | 1011.7 |
| 20260504195551 | 15 | 359 | 6.4 | 19.3 | 0.00 | 0.00 | 0.00 | 42 | 1011.5 |
| 20260504195051 | 15 | 17 | 6.4 | 19.3 | 0.00 | 0.00 | 0.00 | 42 | 1011.6 |
| 20260504194600 | 15 | 359 | 1.6 | 16.1 | 0.00 | 0.00 | 0.00 | 43 | 1011.7 |
| 20260504194051 | 15 | 359 | 3.2 | 16.1 | 0.00 | 0.00 | 0.00 | 42 | 1011.8 |
| 20260504193551 | 15 | 359 | 6.4 | 16.1 | 0.00 | 0.00 | 0.00 | 43 | 1011.7 |
| 20260504193051 | 15 | 359 | 3.2 | 14.5 | 0.00 | 0.00 | 0.00 | 42 | 1011.8 |
| 20260504192550 | 15 | 359 | 1.6 | 12.9 | 0.00 | 0.00 | 0.00 | 41 | 1011.7 |
| 20260504192049 | 16 | 359 | 3.2 | 12.9 | 0.00 | 0.00 | 0.00 | 40 | 1011.7 |
| 20260504191550 | 16 | 359 | 3.2 | 12.9 | 0.00 | 0.00 | 0.00 | 40 | 1011.7 |
| 20260504191050 | 16 | 359 | 1.6 | 16.1 | 0.00 | 0.00 | 0.00 | 38 | 1011.7 |
| 20260504190549 | 16 | 359 | 4.8 | 16.1 | 0.00 | 0.00 | 0.00 | 38 | 1011.8 |
| 20260504190107 | 16 | 359 | 3.2 | 12.9 | 0.00 | 0.00 | 0.00 | 43 | 1011.8 |
| 20260504185548 | 16 | 359 | 3.2 | 14.5 | 0.00 | 0.00 | 0.00 | 41 | 1011.8 |
| 20260504185046 | 16 | 359 | 6.4 | 14.5 | 0.00 | 0.00 | 0.00 | 39 | 1011.8 |
| 20260504184546 | 15 | 359 | 1.6 | 9.7 | 0.00 | 0.00 | 0.00 | 41 | 1011.9 |
| 20260504184049 | 15 | 359 | 3.2 | 12.9 | 0.00 | 0.00 | 0.00 | 41 | 1011.9 |
| 20260504183546 | 15 | 359 | 3.2 | 12.9 | 0.00 | 0.00 | 0.00 | 40 | 1011.9 |
| 20260504183046 | 15 | 359 | 4.8 | 12.9 | 0.00 | 0.00 | 0.00 | 43 | 1011.9 |
| 20260504182545 | 15 | 359 | 1.6 | 12.9 | 0.00 | 0.00 | 0.00 | 40 | 1011.9 |
| 20260504182045 | 15 | 359 | 1.6 | 8.0 | 0.00 | 0.00 | 0.00 | 41 | 1011.9 |
| 20260504181549 | 15 | 359 | 1.6 | 8.0 | 0.00 | 0.00 | 0.00 | 42 | 1011.9 |
| 20260504181044 | 15 | 359 | 3.2 | 9.7 | 0.00 | 0.00 | 0.00 | 43 | 1012.0 |
| 20260504180544 | 15 | 359 | 1.6 | 9.7 | 0.00 | 0.00 | 0.00 | 42 | 1012.0 |
| 20260504180041 | 15 | 359 | 4.8 | 9.7 | 0.00 | 0.00 | 0.00 | 41 | 1012.0 |
| 20260504175543 | 15 | 359 | 3.2 | 12.9 | 0.00 | 0.00 | 0.00 | 43 | 1011.9 |
| 20260504175041 | 15 | 359 | 6.4 | 14.5 | 0.00 | 0.00 | 0.00 | 41 | 1012.1 |
| 20260504174541 | 15 | 359 | 4.8 | 9.7 | 0.00 | 0.00 | 0.00 | 41 | 1012.1 |
| 20260504174041 | 15 | 359 | 1.6 | 12.9 | 0.00 | 0.00 | 0.00 | 42 | 1012.1 |
| 20260504173539 | 15 | 254 | 3.2 | 9.7 | 0.00 | 0.00 | 0.00 | 42 | 1012.0 |
| 20260504173038 | 15 | 359 | 1.6 | 8.0 | 0.00 | 0.00 | 0.00 | 43 | 1012.1 |
| 20260504172537 | 14 | 359 | 1.6 | 16.1 | 0.00 | 0.00 | 0.00 | 41 | 1012.1 |
| 20260504172037 | 14 | 359 | 3.2 | 16.1 | 0.00 | 0.00 | 0.00 | 42 | 1012.2 |
| 20260504171536 | 14 | 359 | 1.6 | 8.0 | 0.00 | 0.00 | 0.00 | 43 | 1012.2 |
| 20260504171038 | 14 | 359 | 3.2 | 8.0 | 0.00 | 0.00 | 0.00 | 44 | 1012.2 |
| 20260504170535 | 14 | 359 | 1.6 | 14.5 | 0.00 | 0.00 | 0.00 | 44 | 1012.1 |
| 20260504151024 | 11 | 359 | 1.6 | 9.7 | 0.00 | 0.00 | 0.00 | 50 | 1012.3 |
| 20260504150529 | 11 | 359 | 1.6 | 9.7 | 0.00 | 0.00 | 0.00 | 50 | 1012.3 |
| 20260504141022 | 10 | 359 | 1.6 | 6.4 | 0.00 | 0.00 | 0.00 | 52 | 1012.2 |
| 20260504140525 | 10 | 359 | 0.0 | 4.8 | 0.00 | 0.00 | 0.00 | 52 | 1012.2 |
| 20260504130516 | 8 | 359 | 1.6 | 3.2 | 0.00 | 0.00 | 0.00 | 62 | 1011.5 |
| 20260504110504 | 11 | 359 | 1.6 | 6.4 | 0.00 | 0.00 | 0.00 | 54 | 1010.5 |
| 20260504100559 | 11 | 359 | 1.6 | 8.0 | 0.00 | 0.00 | 0.00 | 50 | 1010.4 |
| 20260504081556 | 12 | 359 | 3.2 | 9.7 | 0.00 | 0.00 | 0.00 | 53 | 1009.3 |
| 20260504081047 | 12 | 359 | 3.2 | 14.5 | 0.00 | 0.00 | 0.00 | 56 | 1009.3 |
| 20260504080550 | 11 | 359 | 8.0 | 14.5 | 0.00 | 0.00 | 0.00 | 62 | 1009.2 |
| 20260504050528 | 10 | 359 | 3.2 | 6.4 | 0.00 | 0.00 | 0.00 | 70 | 1008.9 |
| 20260504045527 | 10 | 359 | 3.2 | 8.0 | 0.00 | 0.00 | 0.00 | 73 | 1009.0 |
| 20260504045027 | 10 | 359 | 1.6 | 4.8 | 0.00 | 0.00 | 0.00 | 73 | 1009.0 |
| 20260504044529 | 10 | 359 | 1.6 | 3.2 | 0.00 | 0.00 | 0.00 | 73 | 1009.1 |
| 20260504044030 | 10 | 359 | 0.0 | 1.6 | 0.00 | 0.00 | 0.00 | 67 | 1009.1 |
| 20260504043527 | 10 | 359 | 0.0 | 1.6 | 0.00 | 0.00 | 0.00 | 64 | 1009.0 |
| 20260504043027 | 10 | 359 | 0.0 | 1.6 | 0.00 | 0.00 | 0.00 | 66 | 1009.0 |
| 20260504042527 | 11 | 359 | 0.0 | 1.6 | 0.00 | 0.00 | 0.00 | 70 | 1009.0 |
| 20260504042026 | 11 | 359 | 0.0 | 1.6 | 0.00 | 0.00 | 0.00 | 73 | 1009.0 |
| 20260504041526 | 11 | 359 | 0.0 | 3.2 | 0.00 | 0.00 | 0.00 | 74 | 1009.0 |
| 20260504041027 | 11 | 359 | 0.0 | 4.8 | 0.00 | 0.00 | 0.00 | 71 | 1009.0 |
| 20260504040526 | 11 | 359 | 0.0 | 4.8 | 0.00 | 0.00 | 0.00 | 69 | 1008.9 |
| 20260504040026 | 12 | 359 | 0.0 | 1.6 | 0.00 | 0.00 | 0.00 | 70 | 1008.9 |